Wind_Speed
27 28 28 29 29 30 29 29 29 30 30 31 30 29 29 29 29 30 30 30 30 30 31 32 33 34 34 34 35 36 37 38 39 40 40 41 42 42 42 43 43 43 43 43
28 28 28 29 29 29 29 29 29 29 30 30 30 30 29 29 29 29 29 30 30 30 31 32 33 34 34 34 35 35 36 37 38 39 40 40 41 42 43 44 44 44 43 43
28 28 27 27 27 27 28 29 28 29 29 30 30 29 29 29 29 29 29 30 31 31 31 32 32 33 34 34 34 35 35 36 37 39 40 40 41 41 42 42 44 45 44 44
27 26 27 27 28 28 28 27 28 29 29 30 30 30 28 28 28 29 29 29 30 30 30 30 31 32 33 34 34 35 36 36 37 38 39 40 41 42 42 43 44 45 45 45
26 26 26 27 27 28 28 27 27 28 29 30 29 30 27 27 27 28 29 29 29 30 30 30 30 31 32 33 34 35 36 36 36 37 38 39 40 41 42 43 44 45 46 45
25 26 26 26 26 27 27 27 27 28 29 30 28 29 28 28 27 27 27 28 28 29 29 30 30 31 31 32 33 34 35 36 36 37 38 38 39 40 41 42 42 44 45 45
25 25 26 26 26 26 26 25 26 27 28 29 28 29 28 27 26 26 26 27 27 28 29 29 30 30 31 32 33 34 35 36 37 38 38 38 38 39 40 41 41 43 44 45
24 23 23 24 24 25 25 25 25 27 28 28 28 29 27 27 26 26 26 26 26 27 28 29 29 30 31 32 33 34 35 36 37 37 38 38 38 39 39 40 41 42 44 45
23 23 22 22 22 23 23 24 24 26 28 28 28 28 27 26 25 25 25 26 26 27 27 28 29 29 30 31 32 33 34 35 36 36 37 38 38 39 40 40 41 42 43 44
23 22 21 21 22 23 23 23 23 24 26 28 28 27 26 24 25 25 26 26 26 27 28 29 30 31 31 31 32 33 34 34 36 37 38 39 39 40 40 41 42 42 44 44
22 23 22 22 22 23 23 23 23 24 26 27 27 26 24 24 24 24 26 26 27 28 28 29 29 30 31 31 32 32 33 34 35 36 37 38 39 41 42 43 43 43 43 44
22 22 22 22 22 23 22 22 23 23 24 26 27 26 24 24 24 25 25 26 27 28 29 29 29 29 30 31 31 32 33 34 35 36 37 38 40 40 41 42 43 43 44 45
21 22 22 21 22 22 22 22 22 23 24 25 26 26 25 25 26 26 27 27 27 28 28 29 29 29 30 31 32 32 33 34 35 36 37 38 39 40 41 42 43 43 44 46
21 22 22 22 22 22 22 22 22 23 24 25 25 26 25 25 26 27 27 26 27 27 28 28 28 29 29 30 31 32 33 34 35 35 35 36 38 40 40 41 42 42 44 45
22 23 23 22 22 23 23 23 23 24 24 24 23 25 25 25 26 26 27 27 27 27 28 28 28 28 28 28 29 30 32 33 34 35 35 36 37 38 39 39 40 42 43 44
23 23 23 23 22 23 23 23 23 23 23 24 24 24 24 25 25 25 26 26 26 26 27 28 28 28 28 28 29 30 31 31 32 32 34 34 34 35 37 37 39 40 41 41
23 23 23 22 22 23 24 21 21 22 23 23 23 23 23 23 24 24 25 25 25 25 26 27 27 28 28 28 29 29 29 29 30 31 31 31 31 33 34 35 36 37 37 38
23 23 22 21 21 23 22 21 21 22 23 23 23 23 24 24 24 24 24 24 24 24 25 26 27 27 27 27 27 28 28 28 29 28 29 29 30 30 30 31 33 33 34 34
22 22 22 21 22 22 21 21 21 22 22 22 23 23 24 24 24 23 24 24 23 23 24 25 26 26 26 26 27 27 27 27 27 26 26 26 27 27 28 28 29 29 29 30
21 21 21 22 23 23 21 20 21 22 22 22 23 23 24 23 24 23 24 24 24 24 25 25 25 25 25 26 26 25 25 25 25 25 25 25 25 25 26 27 27 27 27 27
20 20 20 21 22 22 20 19 20 21 21 21 22 23 23 23 23 23 24 24 24 24 24 24 24 24 24 25 24 24 24 24 25 24 24 24 24 25 25 25 25 25 25 25
19 19 19 20 21 20 20 20 20 21 21 21 21 22 23 23 23 22 23 23 23 23 23 23 23 23 23 23 22 23 23 23 24 24 24 24 23 23 24 24 24 23 23 23
20 20 20 20 20 21 20 20 20 21 21 21 22 22 22 23 23 22 22 22 22 22 22 22 22 22 22 22 21 22 22 22 22 23 23 23 23 23 23 23 23 23 22 22
21 20 20 20 20 21 21 20 20 20 21 21 22 22 22 22 22 21 21 21 21 21 21 21 21 21 21 21 21 21 21 21 21 21 22 22 22 22 22 22 22 22 22 21
20 20 20 20 21 21 21 22 21 21 21 21 21 21 20 20 20 20 20 20 20 21 21 21 21 21 21 21 20 20 20 20 20 21 21 21 21 21 21 21 20 20 20 20
19 19 20 21 21 21 21 21 21 21 21 21 20 19 19 19 19 19 19 19 20 21 21 21 21 21 20 20 20 20 20 20 20 20 20 20 20 20 21 21 20 20 20 20
Wind_Direction
272 270 270 269 266 264 261 260 264 264 261 260 260 260 260 261 260 260 259 257 257 256 256 255 254 253 253 253 252 253 253 254 253 253 254 253 253 252 251 251 250 250 250 249
272 270 270 269 267 263 261 263 264 264 263 262 262 262 261 261 261 261 260 259 258 257 257 256 255 255 254 255 255 255 256 256 254 254 254 255 253 253 252 252 252 252 251 252
272 271 270 267 265 265 263 265 265 265 265 264 264 261 261 261 262 261 261 261 260 259 258 257 256 256 256 255 255 255 256 257 256 256 255 255 254 253 253 254 254 254 253 254
272 271 268 266 265 266 263 264 265 264 264 265 264 263 260 261 262 261 262 261 261 260 259 257 257 257 256 256 257 257 257 257 257 256 255 255 255 254 255 256 256 255 254 255
273 271 268 267 267 266 264 265 265 264 263 263 263 262 261 261 261 262 262 262 261 260 259 258 257 257 256 257 258 258 259 258 257 256 256 256 257 257 257 257 257 256 255 255
273 271 270 269 268 265 263 265 266 264 264 263 263 264 263 262 262 263 263 261 260 259 258 259 260 260 259 259 260 260 260 259 258 258 258 258 258 258 257 257 258 257 256 257
274 273 272 269 267 264 263 266 267 266 264 264 264 264 265 265 264 263 263 261 260 258 258 259 261 261 261 261 261 261 261 260 260 260 260 260 259 259 259 259 259 259 259 259
277 276 273 269 266 263 262 264 266 266 265 266 266 266 267 266 266 265 262 261 261 259 260 261 262 263 264 263 262 262 262 261 260 261 261 262 261 261 260 261 261 262 261 261
277 277 275 272 268 263 263 263 265 267 266 267 267 267 268 268 268 266 265 264 263 262 263 264 265 266 267 265 264 263 263 261 261 261 262 263 263 262 262 261 262 263 263 263
278 278 278 274 269 264 264 265 266 267 268 269 269 268 269 268 266 266 266 266 265 264 264 266 268 269 269 267 265 265 263 262 261 262 263 264 264 264 263 264 263 263 264 264
279 277 278 274 269 267 265 266 267 267 267 269 270 270 270 271 269 266 265 266 266 267 267 268 269 269 269 267 267 265 263 263 262 262 263 263 264 264 264 265 265 265 265 265
280 278 278 275 271 268 266 267 268 267 267 268 269 270 272 272 270 269 268 268 268 269 269 270 271 271 270 269 268 268 266 264 263 263 264 264 264 265 265 266 267 267 267 266
282 279 278 277 273 269 266 268 268 267 267 269 271 273 275 273 271 272 272 270 270 269 269 270 272 272 271 270 270 269 268 266 266 266 266 265 265 266 267 268 267 269 269 268
281 280 278 277 275 269 266 268 269 269 270 271 273 275 275 274 274 275 276 273 271 270 270 271 271 272 272 271 271 270 270 269 267 266 267 267 267 267 269 270 270 269 269 269
278 279 278 277 275 269 267 268 269 269 271 272 274 276 277 276 276 276 275 274 273 271 272 272 272 273 273 272 272 271 271 271 270 269 270 271 270 269 269 270 271 271 271 270
278 278 278 277 276 271 269 270 271 272 274 274 274 276 278 277 276 277 277 276 274 273 273 273 274 275 275 274 274 274 274 274 273 273 273 274 273 272 271 271 272 272 272 272
278 278 278 278 276 274 272 273 273 273 273 274 275 277 277 275 274 275 276 276 275 274 275 275 276 276 278 278 277 277 276 275 276 276 276 275 275 275 273 272 273 274 274 273
277 278 278 278 276 275 275 273 274 275 273 274 275 276 276 275 275 275 276 276 276 275 277 277 277 278 280 280 278 277 276 277 278 278 278 276 278 277 276 276 277 277 276 275
277 277 276 277 278 277 276 277 276 275 273 273 273 275 276 275 274 274 275 276 277 278 279 280 280 280 280 281 281 280 277 277 277 278 280 281 280 279 279 280 280 280 279 277
278 277 275 276 277 278 281 279 276 276 275 273 273 275 276 275 274 274 275 275 276 277 279 280 281 281 281 281 281 280 278 276 276 279 280 281 281 282 281 281 281 281 280 277
279 278 277 277 279 280 281 280 277 277 279 277 276 276 276 275 275 275 274 275 277 278 280 280 281 281 281 280 280 280 279 278 277 279 279 279 281 283 283 283 283 282 280 278
281 281 281 279 279 282 282 280 277 278 280 280 279 278 276 275 275 275 276 277 278 280 281 282 282 282 282 280 280 281 280 279 277 277 279 279 280 283 285 285 285 283 281 281
279 280 281 280 281 281 282 281 278 278 281 282 281 281 278 276 275 274 276 278 278 279 280 281 282 282 283 282 282 281 281 281 281 279 279 280 280 281 284 285 285 283 281 281
280 282 281 280 280 279 277 278 279 278 279 281 281 281 281 280 278 275 275 276 278 279 280 280 280 282 284 284 283 282 281 282 282 282 281 281 281 282 284 285 284 283 282 280
281 282 283 283 281 278 276 276 277 278 280 281 281 281 280 282 280 276 274 276 277 277 278 279 280 281 282 282 282 282 283 283 282 282 282 282 281 282 283 283 282 282 281 280
283 282 284 285 283 279 277 276 277 278 280 280 280 280 280 281 280 278 275 276 277 276 277 279 281 281 280 279 280 281 283 283 283 283 282 282 282 283 283 282 281 281 280 279
Height
5695 5695 5694 5694 5693 5693 5693 5694 5694 5694 5694 5695 5695 5696 5697 5697 5697 5698 5698 5698 5699 5700 5700 5701 5702 5703 5704 5706 5707 5709 5710 5711 5712 5714 5715 5716 5718 5719 5721 5722 5724 5727 5729 5731
5687 5687 5687 5685 5685 5685 5685 5685 5686 5686 5686 5686 5688 5688 5689 5689 5689 5690 5690 5690 5691 5692 5692 5693 5694 5695 5696 5697 5698 5700 5700 5701 5702 5704 5705 5707 5708 5710 5711 5713 5715 5717 5719 5721
5678 5679 5678 5677 5677 5677 5677 5678 5678 5678 5678 5678 5680 5681 5682 5682 5682 5682 5682 5682 5683 5684 5684 5685 5686 5687 5688 5689 5690 5691 5692 5692 5693 5694 5696 5697 5698 5700 5702 5704 5705 5707 5709 5711
5670 5670 5670 5670 5669 5669 5669 5670 5670 5670 5670 5671 5672 5672 5674 5674 5674 5674 5674 5674 5675 5675 5676 5676 5677 5678 5679 5680 5681 5682 5683 5683 5684 5685 5686 5687 5689 5690 5692 5694 5695 5697 5699 5700
5662 5662 5662 5662 5662 5661 5661 5662 5662 5662 5662 5663 5664 5664 5667 5667 5666 5666 5666 5666 5667 5667 5668 5668 5669 5670 5670 5671 5672 5673 5673 5674 5675 5675 5677 5678 5679 5680 5682 5683 5684 5686 5688 5690
5654 5654 5653 5654 5654 5654 5654 5654 5654 5654 5654 5655 5656 5656 5658 5658 5659 5659 5659 5659 5659 5659 5660 5660 5661 5661 5662 5663 5663 5664 5664 5665 5665 5666 5667 5668 5669 5671 5672 5673 5674 5675 5677 5678
5646 5646 5646 5646 5646 5646 5647 5647 5647 5646 5646 5646 5648 5648 5650 5650 5650 5651 5651 5651 5651 5651 5652 5652 5653 5653 5653 5654 5654 5654 5655 5655 5656 5657 5657 5658 5660 5660 5661 5662 5663 5664 5665 5667
5638 5639 5639 5638 5639 5639 5639 5640 5640 5640 5639 5639 5639 5639 5643 5642 5642 5642 5642 5643 5643 5643 5644 5644 5644 5645 5645 5645 5645 5645 5646 5646 5646 5647 5648 5648 5649 5650 5651 5651 5652 5653 5654 5655
5631 5632 5632 5631 5631 5631 5631 5632 5633 5632 5631 5631 5631 5633 5635 5634 5634 5634 5634 5634 5635 5635 5636 5636 5636 5636 5636 5636 5636 5636 5636 5636 5636 5637 5638 5638 5639 5639 5640 5641 5641 5642 5643 5644
5625 5625 5625 5624 5624 5624 5625 5625 5625 5624 5623 5623 5624 5625 5627 5627 5627 5627 5627 5627 5627 5628 5628 5628 5628 5627 5627 5627 5627 5626 5626 5627 5627 5627 5627 5628 5628 5629 5629 5630 5631 5631 5631 5632
5619 5619 5619 5618 5618 5618 5618 5618 5618 5617 5617 5617 5617 5621 5620 5620 5620 5620 5620 5619 5620 5620 5620 5620 5619 5618 5618 5617 5617 5617 5617 5617 5617 5617 5617 5618 5618 5618 5618 5618 5619 5619 5619 5619
5613 5612 5612 5612 5612 5611 5611 5611 5611 5612 5611 5610 5610 5615 5613 5613 5612 5612 5612 5612 5611 5611 5611 5611 5610 5610 5609 5608 5608 5607 5607 5607 5607 5607 5607 5606 5607 5606 5606 5606 5606 5606 5607 5607
5607 5606 5605 5605 5607 5605 5604 5605 5605 5604 5604 5604 5604 5608 5606 5605 5605 5604 5604 5604 5603 5603 5603 5602 5601 5601 5600 5599 5598 5597 5597 5596 5596 5596 5596 5595 5595 5595 5594 5594 5593 5593 5593 5593
5600 5600 5600 5600 5599 5598 5598 5599 5598 5598 5597 5597 5598 5599 5599 5598 5597 5596 5596 5596 5595 5595 5594 5594 5593 5592 5590 5589 5588 5587 5587 5586 5585 5585 5585 5584 5584 5583 5582 5582 5581 5580 5580 5579
5594 5594 5593 5593 5592 5592 5592 5592 5592 5591 5591 5591 5591 5591 5591 5590 5589 5588 5588 5587 5587 5586 5586 5585 5584 5583 5582 5580 5579 5578 5577 5576 5575 5574 5574 5573 5572 5572 5571 5570 5569 5568 5567 5567
5588 5587 5586 5586 5586 5585 5584 5585 5585 5585 5584 5583 5583 5584 5584 5582 5581 5581 5580 5579 5578 5578 5577 5576 5575 5574 5573 5572 5570 5569 5568 5566 5565 5564 5564 5563 5562 5561 5560 5559 5558 5556 5555 5554
5581 5581 5580 5579 5579 5577 5578 5580 5579 5578 5577 5577 5576 5578 5576 5575 5574 5573 5572 5571 5570 5570 5569 5568 5567 5566 5565 5563 5562 5560 5559 5558 5557 5555 5554 5553 5552 5550 5549 5548 5547 5545 5544 5543
5575 5574 5572 5572 5572 5571 5574 5572 5572 5571 5571 5570 5570 5570 5569 5568 5567 5566 5565 5564 5563 5562 5561 5560 5559 5558 5556 5555 5553 5552 5550 5549 5548 5547 5546 5544 5543 5541 5539 5538 5536 5535 5534 5533
5569 5568 5566 5565 5564 5564 5566 5566 5564 5563 5563 5563 5562 5562 5561 5560 5560 5560 5558 5557 5555 5554 5553 5552 5551 5549 5548 5547 5545 5544 5542 5541 5540 5539 5538 5536 5534 5533 5531 5529 5528 5526 5525 5524
5562 5561 5560 5559 5557 5557 5560 5559 5557 5557 5556 5557 5555 5555 5554 5553 5553 5553 5551 5550 5548 5547 5546 5545 5543 5541 5540 5539 5537 5536 5534 5533 5533 5531 5530 5529 5527 5525 5524 5522 5520 5519 5517 5516
5556 5555 5554 5553 5551 5550 5552 5551 5551 5551 5551 5549 5547 5547 5546 5545 5545 5545 5543 5542 5541 5539 5538 5537 5535 5534 5532 5531 5530 5528 5527 5526 5525 5524 5523 5521 5520 5518 5516 5515 5513 5511 5509 5508
5549 5549 5548 5546 5545 5547 5546 5544 5544 5544 5542 5541 5540 5539 5538 5538 5537 5536 5535 5534 5533 5532 5531 5529 5528 5527 5525 5524 5522 5521 5520 5519 5518 5517 5516 5515 5513 5512 5510 5508 5506 5504 5503 5501
5543 5543 5541 5541 5542 5540 5538 5538 5537 5536 5535 5534 5533 5532 5531 5530 5529 5529 5528 5527 5526 5524 5524 5522 5521 5520 5518 5517 5516 5515 5513 5512 5511 5510 5509 5507 5506 5505 5503 5502 5500 5498 5496 5495
5537 5536 5535 5534 5534 5533 5532 5531 5530 5529 5528 5527 5526 5524 5523 5522 5522 5521 5520 5519 5518 5518 5517 5516 5514 5513 5512 5510 5509 5508 5507 5505 5504 5503 5502 5501 5499 5498 5497 5495 5493 5492 5491 5489
5530 5529 5528 5527 5527 5526 5525 5524 5523 5522 5521 5520 5519 5518 5516 5516 5515 5514 5513 5512 5511 5510 5510 5509 5508 5507 5505 5504 5503 5501 5500 5499 5498 5497 5496 5494 5493 5491 5490 5489 5488 5486 5485 5484
5524 5523 5521 5520 5519 5518 5518 5517 5516 5515 5514 5513 5512 5511 5510 5510 5509 5508 5507 5506 5505 5504 5503 5502 5501 5500 5499 5497 5496 5495 5494 5493 5492 5490 5489 5488 5487 5485 5484 5483 5482 5480 5479 5478